Location: Unspecified
(0.0000°N, 0.0000°E)
Time: 04:34:40
(UTC+02:00)

CZ-4B R/B - Visible Passes

Search period start: 03 July 2015 00:00
Search period end: 13 July 2015 00:00
Orbit: 490 x 665 km, 97.6° (Epoch: 02 July)

Date Brightness Start Highest point End Pass type
(mag) Time Alt. Az. Time Alt. Az. Time Alt. Az.
03 Jul 5.9 05:33:04 10° NNE 05:33:06 10° NNE 05:33:06 10° NNE visible
04 Jul 5.9 05:37:16 10° N 05:37:23 11° N 05:37:23 11° N visible
05 Jul 5.8 05:41:31 10° N 05:41:40 11° N 05:41:40 11° N visible
06 Jul 5.7 05:45:45 10° N 05:45:57 11° N 05:45:57 11° N visible
07 Jul 5.7 05:50:01 10° N 05:50:14 11° N 05:50:14 11° N visible
08 Jul 5.7 05:54:18 10° N 05:54:30 11° N 05:54:30 11° N visible
09 Jul 5.7 05:58:35 10° N 05:58:47 11° NNW 05:58:47 11° NNW visible
10 Jul 5.7 06:02:55 10° NNW 06:03:03 11° NNW 06:03:03 11° NNW visible
11 Jul 5.7 06:07:15 10° NNW 06:07:19 10° NNW 06:07:19 10° NNW visible
